KB0ZXY Weather Reports


Display with metric or nautical units.
time (UTC)temp
F
wind
direction
speed
MPH
gust
MPH
rain 1hr
in
rain 24hr
in
rain mn
in
humidity
%
barometer
mb
20180819113458 65 34 0.0 0.0 0.00 0.00 0.00 96 1011.7
20180819112423 66 34 0.0 0.0 0.00 0.00 0.00 96 1011.8
20180819105423 66 34 0.0 0.0 0.00 0.00 0.00 96 1011.5
20180819102439 66 34 0.0 0.0 0.00 0.00 0.00 96 1011.4
20180819101328 66 34 0.0 0.0 0.00 0.00 0.00 96 1011.3
20180819100357 66 34 0.0 0.0 0.00 0.00 0.00 96 1011.3
20180819095505 65 34 0.0 0.0 0.00 0.00 0.00 96 1011.4
20180819085339 65 34 0.0 0.0 0.00 0.00 0.00 95 1011.6
20180819082317 66 34 0.0 0.0 0.00 0.00 0.00 95 1011.8
20180819081428 66 34 0.0 0.0 0.00 0.00 0.00 95 1012.0
20180819072428 67 34 0.0 0.0 0.00 0.00 0.00 94 1012.4
20180819070518 67 34 0.0 0.0 0.00 0.00 0.00 94 1012.6
20180819063530 68 34 0.0 0.0 0.00 0.00 0.00 93 1012.8
20180819060423 69 34 0.0 0.0 0.00 0.00 0.00 92 1012.8
20180819053516 69 34 0.0 0.0 0.00 0.00 0.00 92 1012.7
20180819051346 69 34 0.0 0.0 0.00 0.00 0.00 92 1012.8
20180819050413 69 34 0.0 0.0 0.00 0.00 0.00 92 1012.7
20180819045501 69 34 0.0 0.0 0.00 0.00 0.00 92 1012.7
20180819044546 69 34 0.0 0.0 0.00 0.00 0.00 92 1012.8
20180819042351 70 34 0.0 0.0 0.00 0.00 0.00 91 1012.8
20180819041359 70 34 0.0 0.0 0.00 0.00 0.00 91 1012.8
20180819040406 70 34 0.0 0.0 0.00 0.00 0.00 91 1012.8
20180819035434 70 34 0.0 0.0 0.00 0.00 0.00 91 1012.9
20180819030412 71 34 0.0 0.0 0.00 0.00 0.00 90 1013.2
20180819022432 72 34 0.0 0.0 0.00 0.00 0.00 86 1012.8
20180819005409 79 34 0.0 0.0 0.00 0.00 0.00 72 1012.6
20180819004335 79 34 0.0 0.0 0.00 0.00 0.00 71 1012.5
20180819002528 80 34 1.0 2.0 0.00 0.00 0.00 69 1012.4
20180818235341 82 34 1.0 2.0 0.00 0.00 0.00 66 1012.5
20180818233514 84 34 1.0 3.0 0.00 0.00 0.00 64 1012.7
20180818232417 84 34 1.0 2.0 0.00 0.00 0.00 65 1012.8
20180818205405 88 266 2.0 3.0 0.00 0.00 0.00 53 1013.5
20180818202442 87 344 2.0 6.0 0.00 0.00 0.00 56 1013.9
20180818201532 87 360 2.0 4.0 0.00 0.00 0.00 59 1014.0
20180818200435 86 92 0.0 1.0 0.00 0.00 0.00 62 1014.2
20180818195420 86 92 1.0 2.0 0.00 0.00 0.00 61 1014.2
20180818194544 87 92 2.0 3.0 0.00 0.00 0.00 55 1014.2
20180818193447 88 50 2.0 4.0 0.00 0.00 0.00 53 1014.3
20180818192359 88 104 1.0 3.0 0.00 0.00 0.00 58 1014.4
20180818191527 88 47 1.0 3.0 0.00 0.00 0.00 60 1014.4
20180818185447 88 17 3.0 6.0 0.00 0.00 0.00 54 1014.7
20180818184545 87 331 1.0 2.0 0.00 0.00 0.00 53 1014.7
20180818174459 85 314 1.0 3.0 0.00 0.00 0.00 61 1015.3
20180818173548 85 314 2.0 5.0 0.00 0.00 0.00 61 1015.4
20180818171415 85 144 0.0 3.0 0.00 0.00 0.00 64 1015.6
20180818163330 85 293 3.0 5.0 0.00 0.00 0.00 61 1016.1
20180818160415 83 16 1.0 4.0 0.00 0.00 0.00 62 1016.1
20180818152451 82 226 0.0 4.0 0.00 0.00 0.00 70 1016.4
20180818151517 81 214 0.0 2.0 0.00 0.00 0.00 71 1016.4
20180818150442 80 214 1.0 3.0 0.00 0.00 0.00 74 1016.5
20180818145349 79 329 1.0 2.0 0.00 0.00 0.00 80 1016.5
20180818144518 77 329 0.0 3.0 0.00 0.00 0.00 84 1016.5
20180818142328 73 329 0.0 0.0 0.00 0.00 0.00 95 1016.3
20180818141518 71 329 0.0 1.0 0.00 0.00 0.00 98 1016.4
20180818135329 70 329 0.0 1.0 0.00 0.00 0.00 98 1016.4
20180818132503 67 329 0.0 0.0 0.00 0.00 0.00 98 1016.4
20180818123324 64 329 0.0 0.0 0.00 0.00 0.00 97 1016.3